Regional Weather Roundup
Issued by NWS

Home | Current Version | Previous Version | Graphics & Text | Print | Product List | Glossary On
Versions: 1 2 3 4 5 6 7 8 9 10 11 12 13 14 15 16 17 18 19 20 21 22 23 24 25 26 27 28 29 30 31 32 33 34 35 36 37 38 39 40 41 42 43 44 45 46 47 48 49 50
000
ASUS43 KOAX 031110
RWRNE

WEATHER ROUNDUP FOR NEBRASKA
NATIONAL WEATHER SERVICE OMAHA NE
600 AM CDT MON AUG 03 2015

NOTES: SATELLITE DATA IS BEING USED TO AUGMENT CLOUD COVER ABOVE
       12000 FEET.
       "FAIR" INDICATES FEW OR NO CLOUDS BELOW 12,000 FEET WITH NO
       SIGNIFICANT WEATHER AND/OR OBSTRUCTIONS TO VISIBILITY.

  * THESE STATIONS DO NOT REPORT WEATHER SUCH AS RAIN...SNOW OR FOG.

NEZ001>004-019>022-054>056-031200-
NEBRASKA PANHANDLE

CITY           SKY/WX    TMP DP  RH WIND       PRES   REMARKS
SCOTTSBLUFF    MOCLDY    61  56  83 CALM      29.99F
ALLIANCE       MOCLDY    59  57  93 SE7       30.00S
CHADRON        PTCLDY    58  56  93 N3        29.99S
KIMBALL        MOCLDY    61  51  71 W6        30.04R
SIDNEY         MOCLDY    59  54  83 W7        30.02S
$$

NEZ057>060-069>072-079>082-031200-
SOUTHWEST NEBRASKA

CITY           SKY/WX    TMP DP  RH WIND       PRES   REMARKS
NORTH PLATTE   PTCLDY    59  57  93 E3        29.99S
IMPERIAL       CLEAR     62  55  77 NE3       30.00R
LEXINGTON      PTCLDY    64  62  92 E6        29.98R
MCCOOK         CLEAR     62  57  83 NE5       29.97S
OGALLALA       MOCLDY    62  58  87 E7        30.00S
$$

NEZ005>010-023>029-035>040-094-031200-
NORTH CENTRAL NEBRASKA

CITY           SKY/WX    TMP DP  RH WIND       PRES   REMARKS
AINSWORTH      CLOUDY    64  62  93 N5        30.04R
BROKEN BOW     PTCLDY    66  59  78 E6        29.99S
O`NEILL        MOCLDY    61  60  96 CALM      30.01R
ORD            CLEAR     61  58  90 CALM      29.97S
THEDFORD       PTCLDY    60  59  96 CALM      30.02S
$$

NEZ041-046>049-061>064-073>077-083>087-031200-
SOUTH CENTRAL NEBRASKA

CITY           SKY/WX    TMP DP  RH WIND       PRES   REMARKS
GRAND ISLAND   CLEAR     64  63  96 NE7       29.97S
AURORA         CLEAR     66  66  99 NE8       29.96R
HASTINGS       PTCLDY    66  64  93 NE7       29.95S
HEBRON         CLEAR     68  65  89 CALM      29.92R
HOLDREGE       PTCLDY    62  60  94 E3        29.97S
KEARNEY *      PTCLDY    63  61  94 NE5       29.97R
YORK           CLEAR     66  64  94 NE9       29.95S
$$

NEZ011>018-030>034-042>045-031200-
NORTHEAST NEBRASKA

CITY           SKY/WX    TMP DP  RH WIND       PRES   REMARKS
NORFOLK        CLEAR     62  59  90 CALM      29.98R
ALBION         PTCLDY    64  58  82 CALM      29.98S
BLAIR          CLEAR     65  60  83 NE7       29.95S
COLUMBUS *     CLEAR     63  55  77 E5        29.97S
FREMONT        CLEAR     68  61  77 NE5       29.96S
TEKAMAH        PTCLDY    64  61  90 N6        29.95S
WAYNE          MOCLDY    60  59  96 CALM      29.99R
$$

NEZ050>053-065>068-078-088>093-031200-
SOUTHEAST NEBRASKA

CITY           SKY/WX    TMP DP  RH WIND       PRES   REMARKS
LINCOLN        CLEAR     70  63  78 NE9       29.93R
OMAHA EPPLEY   PTCLDY    67  64  90 N5        29.95R
BEATRICE       MOCLDY    72  70  95 NE6       29.90S
FALLS CITY     CLEAR     69  65  86 SE7       29.89R
NEBRASKA CITY  MOCLDY    68  67  94 NE5       29.92R
PLATTSMOUTH    CLOUDY    68  62  79 NE6       29.94R
$$

NEZ044-045-051>053-067-031200-
OMAHA AREA

CITY           SKY/WX    TMP DP  RH WIND       PRES   REMARKS
OMAHA EPPLEY   PTCLDY    67  64  90 N5        29.95R
BLAIR          CLEAR     65  60  83 NE7       29.95S
FREMONT        CLEAR     68  61  77 NE5       29.96S
MILLARD        PTCLDY    71  61  71 CALM      29.94S
OFFUTT AFB     CLEAR     69  62  78 NE9       29.93R
PLATTSMOUTH    CLOUDY    68  62  79 NE6       29.94R
WAHOO          FAIR      65  63  91 NE6       29.95S
$$


USA.gov is the U.S. government's official web portal to all federal, state and local government web resources and services.